Home > Weather > Pensacola > Past weeks

Flag for U.S.A. Weather for the Past 2 Weeks in Pensacola, Florida, U.S.A.

Now
41 °F

Clear.


Feels Like: 37 °F
Forecast: 31 / 52 °F
Wind: 6 mph from West

Location: Pensacola Regional Airport

Current Time: Feb 10, 2016 at 1:01:19 AM

Latest Report: Feb 9, 2016 at 11:53 PM


Visibility: 10 mi

Pressure: 30.16 "Hg

Humidity: 45%

Dew point: 21 °F

Location of PensacolaLocation

Historic Weather in Pensacola — Graph

°F

Pensacola Temperature Yesterday

Maximum temperature yesterday: 54 °F (at 2:53 PM)
Minimum temperature yesterday: 39 °F (at 2:53 AM)
Average temperature yesterday: 45 °F

High & Low Weather Summary for the Past Weeks

 TemperatureHumidityPressure
High76 °F (Feb 1, 11:53 AM)100% (Feb 2, 12:53 AM)30.48 "Hg (Feb 2, 12:53 AM)
Low35 °F (Feb 5, 5:53 AM)20% (Feb 9, 2:53 PM)29.86 "Hg (Feb 3, 3:53 AM)
Average55 °F67%30.09 "Hg
* Reported Jan 25 11:53 PM — Feb 9 11:53 PM, Pensacola, Weather by CustomWeather, © 2016

Note: Actual official high and low records may vary slightly from our data, if they occured in-between our weather recording intervals... More about our weather records

Advertising

Pensacola Weather History for the Previous 24 Hours

 ConditionsComfort  
Time TempWeatherWind HumidityBarometerVisibility
11:53 PM
Tue, Feb 9
41 °FClear.6 mph45%30.16 "Hg10 mi
10:53 PM42 °FClear.7 mph41%30.16 "Hg10 mi
9:53 PM42 °FClear.5 mph41%30.15 "Hg10 mi
8:53 PM43 °FClear.6 mph38%30.13 "Hg10 mi
7:53 PM46 °FClear.7 mph31%30.11 "Hg10 mi
6:53 PM49 °FClear.10 mph26%30.08 "Hg10 mi
5:53 PM50 °FClear.9 mph26%30.04 "Hg10 mi
4:53 PM53 °FClear.18 mph22%30.01 "Hg10 mi
3:53 PM54 °FSunny.16 mph20%30.00 "Hg10 mi
2:53 PM54 °FSunny.20 mph20%29.98 "Hg10 mi
1:53 PM53 °FSunny.14 mph22%29.99 "Hg10 mi
12:53 PM52 °FSunny.13 mph24%30.01 "Hg10 mi
11:53 AM50 °FSunny.16 mph25%30.05 "Hg10 mi
10:53 AM49 °FSunny.22 mph26%30.08 "Hg10 mi
9:53 AM46 °FSunny.21 mph30%30.09 "Hg10 mi
8:53 AM45 °FSunny.16 mph38%30.09 "Hg10 mi
7:53 AM43 °FSunny.12 mph47%30.08 "Hg10 mi
6:53 AM39 °FSunny.5 mph60%30.07 "Hg10 mi
5:53 AM39 °FSunny.7 mph57%30.06 "Hg10 mi
4:53 AM39 °FClear.6 mph53%30.05 "Hg10 mi
3:53 AM39 °FClear.9 mph50%30.05 "Hg10 mi
2:53 AM39 °FClear.7 mph50%30.05 "Hg10 mi
1:53 AM40 °FClear.7 mph49%30.05 "Hg10 mi
Weather by CustomWeather, © 2016

See weather overviewHow to use our weather pages